User: anonymous   Login
Location: Unspecified
(0.0000°N, 0.0000°E)
Time: 02:50:48
(UTC+00:00)
Language:

POSAT 1 - Orbit

View from above orbital plane
View from above orbital plane
View from above satellite
View from above satellite

Ground track
Ground track

The orbit data is extracted from the following two-line orbital elements,

1 22829U 93061G   17232.54972132 -.00000014  00000-0  11900-4 0  9991
2 22829  98.8067 200.5768 0010881  92.3380  19.2617 14.30975163247271
Epoch (UTC): 20 August 2017 13:11:35
Eccentricity: 0.0010881
inclination: 98.8067°
perigee height: 780 km
apogee height: 796 km
right ascension of ascending node: 200.5768°
argument of perigee: 92.3380°
revolutions per day: 14.30975163
mean anomaly at epoch: 19.2617°
orbit number at epoch: 24727

The dashed part of the orbit path shows where the satellite is in the earth's shadow,  

DLR